Flag for U.S.A. Weather past 2 weeks in Dallas, Texas, U.S.A.

Now
86 °F

Scattered clouds.


Feels Like: 92 °F
Forecast: 76 / 95 °F
Wind: 14 mph from Southwest

Location: Dallas Love Field

Current Time: Aug 20, 2014 at 11:38:58 AM

Latest Report: Aug 20, 2014 at 10:53 AM


Visibility: 10 mi

Pressure: 29.96 "Hg

Humidity: 61%

Dew point: 71 °F

Location of DallasLocation

Historic Weather in Dallas — Graph

°F

Dallas temperature yesterday

Maximum temperature yesterday: 93 °F (at 2:53 PM)
Minimum temperature yesterday: 78 °F (at 4:53 AM)
Average temperature yesterday: 86 °F

Past Weeks' High & Low Weather Summary

 TemperatureHumidityPressure
High103 °F (Aug 8, 3:53 PM)91% (Aug 17, 7:59 AM)30.09 "Hg (Aug 17, 7:59 AM)
Low70 °F (Aug 13, 6:53 AM)26% (Aug 12, 6:53 PM)29.76 "Hg (Aug 7, 6:53 PM)
Average86 °F55%29.93 "Hg
* Reported Aug 5 9:53 AM — Aug 20 9:53 AM, Dallas, Weather by CustomWeather, © 2014

Note: Actual official high and low records may vary slightly from our data, if they occured in-between our weather recording intervals... More about our weather records

Advertising

Dallas weather history for previous 24 hours

 ConditionsComfort  
Time TempWeatherWind HumidityBarometerVisibility
9:53 AM
Aug 20
84 °FBroken clouds.14 mph67%29.95 "Hg9 mi
8:53 AM81 °FBroken clouds.12 mph74%29.94 "Hg8 mi
7:53 AM79 °FPartly sunny.13 mph79%29.93 "Hg9 mi
6:53 AM79 °FPassing clouds.13 mph77%29.91 "Hg10 mi
5:53 AM80 °FOvercast.13 mph71%29.89 "Hg10 mi
4:53 AM81 °FMostly cloudy.10 mph67%29.88 "Hg10 mi
3:53 AM81 °FOvercast.10 mph67%29.87 "Hg10 mi
2:53 AM81 °FMostly cloudy.14 mph69%29.87 "Hg10 mi
1:53 AM81 °FOvercast.13 mph67%29.87 "Hg10 mi
12:53 AM81 °FOvercast.12 mph67%29.87 "Hg10 mi
11:53 PM
Aug 19
82 °FOvercast.13 mph63%29.88 "Hg10 mi
10:53 PM83 °FOvercast.14 mph57%29.87 "Hg10 mi
9:53 PM84 °FMostly cloudy.18 mph57%29.86 "Hg10 mi
8:53 PM91 °FMostly cloudy.12 mph39%29.82 "Hg10 mi
7:53 PM92 °FBroken clouds.13 mph41%29.82 "Hg10 mi
6:53 PM92 °FScattered clouds.12 mph38%29.81 "Hg10 mi
5:53 PM92 °FScattered clouds.10 mph44%29.82 "Hg10 mi
4:53 PM93 °FScattered clouds.9 mph41%29.82 "Hg10 mi
3:53 PM93 °FScattered clouds.8 mph41%29.83 "Hg10 mi
2:53 PM93 °FBroken clouds.10 mph40%29.86 "Hg10 mi
1:53 PM92 °FPassing clouds.10 mph41%29.88 "Hg10 mi
12:53 PM90 °FBroken clouds.9 mph52%29.90 "Hg10 mi
11:53 AM90 °FBroken clouds.7 mph52%29.92 "Hg10 mi
Weather by CustomWeather, © 2014

See weather overviewHow to use our weather pages